EN

Hourly Weather Alobras

Today, 16 January, Saturday

Time Temperature Precipitation Wind Pressure Humidity
00:00 -7°C° 0 mm 4 mps 652 mmHg 78%
01:00 -7°C° 0 mm 4 mps 651 mmHg 76%
02:00 -7°C° 0 mm 4 mps 651 mmHg 74%
03:00 -7°C° 0 mm 4 mps 651 mmHg 72%
04:00 -7°C° 0 mm 4 mps 651 mmHg 72%
05:00 -7°C° 0 mm 4 mps 652 mmHg 71%
06:00 -7°C° 0 mm 5 mps 652 mmHg 71%
07:00 -7°C° 0 mm 4 mps 652 mmHg 71%
08:00 -5°C° 0 mm 4 mps 653 mmHg 72%
09:00 -5°C° 0 mm 4 mps 653 mmHg 72%
10:00 -2°C° 0 mm 3 mps 654 mmHg 74%
11:00 -1°C° 0 mm 3 mps 654 mmHg 75%
12:00 0°C° 0 mm 4 mps 655 mmHg 75%
13:00 +1°C° 0 mm 3 mps 654 mmHg 74%
14:00 +1°C° 0 mm 3 mps 654 mmHg 74%
15:00 +1°C° 0 mm 3 mps 654 mmHg 73%
16:00 0°C° 0 mm 3 mps 654 mmHg 68%
17:00 -1°C° 0 mm 3 mps 654 mmHg 64%
18:00 -4°C° 0 mm 3 mps 653 mmHg 59%
19:00 -4°C° 0 mm 3 mps 654 mmHg 58%
20:00 -4°C° 0 mm 3 mps 654 mmHg 57%
21:00 -4°C° 0 mm 3 mps 654 mmHg 56%
22:00 -4°C° 0 mm 3 mps 654 mmHg 56%
23:00 -4°C° 0 mm 3 mps 654 mmHg 57%

Tomorrow, 17 January, Sunday

Time Temperature Precipitation Wind Pressure Humidity
00:00 -2°C° 0 mm 3 mps 655 mmHg 57%
01:00 -2°C° 0 mm 2 mps 654 mmHg 56%
02:00 -2°C° 0 mm 2 mps 654 mmHg 55%
03:00 -2°C° 0 mm 2 mps 654 mmHg 55%
04:00 -2°C° 0 mm 2 mps 654 mmHg 55%
05:00 -3°C° 0 mm 2 mps 654 mmHg 55%
06:00 -3°C° 0 mm 2 mps 654 mmHg 55%
07:00 -2°C° 0 mm 2 mps 654 mmHg 59%
08:00 -1°C° 0 mm 2 mps 655 mmHg 62%
09:00 +1°C° 0 mm 2 mps 655 mmHg 66%
10:00 +2°C° 0 mm 2 mps 655 mmHg 72%
11:00 +3°C° 0 mm 2 mps 655 mmHg 77%
12:00 +4°C° 0 mm 2 mps 655 mmHg 83%
13:00 +3°C° 0 mm 3 mps 655 mmHg 84%
14:00 +3°C° 0 mm 3 mps 654 mmHg 85%
15:00 +3°C° 0 mm 3 mps 654 mmHg 87%
16:00 +2°C° 0 mm 3 mps 654 mmHg 86%
17:00 +1°C° 0 mm 3 mps 653 mmHg 85%
18:00 0°C° 0 mm 3 mps 653 mmHg 85%
19:00 -1°C° 0 mm 3 mps 653 mmHg 86%
20:00 -1°C° 0 mm 3 mps 654 mmHg 87%
21:00 -1°C° 0 mm 3 mps 654 mmHg 88%
22:00 -1°C° 0 mm 3 mps 654 mmHg 89%
23:00 -1°C° 0 mm 3 mps 654 mmHg 90%

Day after tomorrow, 18 January, Monday

Time Temperature Precipitation Wind Pressure Humidity
00:00 -1°C° 0 mm 3 mps 654 mmHg 91%
01:00 -1°C° 0 mm 2 mps 654 mmHg 91%
02:00 -2°C° 0 mm 2 mps 654 mmHg 91%
03:00 -2°C° 0 mm 2 mps 653 mmHg 91%
04:00 -2°C° 0 mm 2 mps 653 mmHg 91%
05:00 -2°C° 0 mm 2 mps 653 mmHg 91%
06:00 -2°C° 0 mm 2 mps 653 mmHg 91%
07:00 +1°C° 0 mm 1 mps 654 mmHg 91%
08:00 +1°C° 0 mm 1 mps 654 mmHg 91%
09:00 +2°C° 0 mm 1 mps 654 mmHg 91%
10:00 +3°C° 0 mm 1 mps 655 mmHg 90%
11:00 +4°C° 0 mm 1 mps 655 mmHg 89%
12:00 +5°C° 0 mm 1 mps 655 mmHg 88%
13:00 +5°C° 0 mm 1 mps 654 mmHg 88%
14:00 +5°C° 0 mm 1 mps 654 mmHg 87%
15:00 +5°C° 0 mm 1 mps 654 mmHg 87%
16:00 +4°C° 0 mm 1 mps 653 mmHg 88%
17:00 +1°C° 0 mm 0 mps 653 mmHg 89%
18:00 0°C° 0 mm 0 mps 653 mmHg 91%
19:00 -1°C° 0 mm 0 mps 653 mmHg 90%
20:00 0°C° 0 mm 1 mps 653 mmHg 89%
21:00 0°C° 0 mm 1 mps 653 mmHg 88%
22:00 0°C° 0 mm 1 mps 653 mmHg 87%
23:00 0°C° 0 mm 1 mps 653 mmHg 86%

19 January, Tuesday

Time Temperature Precipitation Wind Pressure Humidity
00:00 -1°C° 0 mm 1 mps 653 mmHg 85%
01:00 -1°C° 0 mm 1 mps 652 mmHg 84%
02:00 -1°C° 0 mm 1 mps 652 mmHg 83%
03:00 -1°C° 0 mm 1 mps 652 mmHg 82%
04:00 -1°C° 0 mm 1 mps 652 mmHg 80%
05:00 -1°C° 0 mm 1 mps 651 mmHg 79%
06:00 -1°C° 0 mm 1 mps 651 mmHg 78%
07:00 0°C° 0 mm 1 mps 652 mmHg 75%
08:00 +1°C° 0 mm 1 mps 652 mmHg 73%
09:00 +2°C° 0 mm 1 mps 653 mmHg 70%
10:00 +2°C° 0 mm 2 mps 653 mmHg 69%
11:00 +4°C° 0 mm 2 mps 653 mmHg 68%
12:00 +5°C° 0 mm 2 mps 653 mmHg 67%
13:00 +4°C° 0 mm 3 mps 652 mmHg 67%
14:00 +4°C° 0 mm 3 mps 652 mmHg 67%
15:00 +4°C° 0 mm 3 mps 651 mmHg 67%
16:00 +2°C° 0 mm 3 mps 650 mmHg 70%
17:00 +2°C° 0 mm 2 mps 650 mmHg 72%
18:00 -1°C° 0 mm 2 mps 649 mmHg 75%
19:00 -1°C° 0 mm 2 mps 649 mmHg 76%
20:00 -1°C° 0 mm 2 mps 649 mmHg 77%
21:00 -2°C° 0 mm 3 mps 649 mmHg 78%
22:00 -2°C° 0 mm 3 mps 649 mmHg 79%
23:00 -2°C° 0 mm 3 mps 649 mmHg 80%

20 January, Wednesday

Time Temperature Precipitation Wind Pressure Humidity
00:00 -1°C° 0 mm 3 mps 648 mmHg 82%
01:00 -2°C° 0 mm 4 mps 648 mmHg 83%
02:00 -2°C° 0 mm 4 mps 648 mmHg 84%
03:00 -2°C° 0 mm 5 mps 647 mmHg 86%
04:00 -2°C° 0 mm 5 mps 647 mmHg 88%
05:00 -2°C° 0 mm 5 mps 646 mmHg 90%
06:00 -2°C° 0 mm 5 mps 646 mmHg 92%
07:00 -3°C° 0 mm 6 mps 646 mmHg 92%
08:00 -2°C° 0 mm 7 mps 646 mmHg 92%
09:00 -2°C° 0 mm 7 mps 646 mmHg 93%
10:00 -1°C° 0 mm 8 mps 645 mmHg 92%
11:00 -1°C° 0 mm 9 mps 645 mmHg 92%
12:00 0°C° 0 mm 9 mps 644 mmHg 92%
13:00 0°C° 0.3 mm 9 mps 644 mmHg 93%
14:00 0°C° 0.3 mm 9 mps 643 mmHg 94%
15:00 0°C° 0.3 mm 9 mps 642 mmHg 95%
16:00 0°C° 0.4 mm 9 mps 642 mmHg 95%
17:00 0°C° 0.4 mm 9 mps 642 mmHg 95%
18:00 0°C° 0.4 mm 8 mps 642 mmHg 95%
19:00 0°C° 0.2 mm 8 mps 643 mmHg 95%
20:00 0°C° 0.2 mm 8 mps 643 mmHg 95%
21:00 0°C° 0.2 mm 8 mps 643 mmHg 95%
22:00 0°C° 0.7 mm 8 mps 643 mmHg 95%
23:00 0°C° 0.7 mm 8 mps 643 mmHg 95%

21 January, Thursday

Time Temperature Precipitation Wind Pressure Humidity
00:00 0°C° 0.7 mm 8 mps 644 mmHg 94%
01:00 0°C° 0.1 mm 8 mps 644 mmHg 94%
02:00 0°C° 0.1 mm 8 mps 644 mmHg 94%
03:00 0°C° 0.1 mm 8 mps 644 mmHg 93%
04:00 0°C° 0 mm 8 mps 644 mmHg 93%
05:00 0°C° 0 mm 8 mps 644 mmHg 92%
06:00 0°C° 0 mm 8 mps 645 mmHg 92%
07:00 0°C° 0 mm 8 mps 645 mmHg 92%
08:00 0°C° 0 mm 8 mps 645 mmHg 92%
09:00 0°C° 0 mm 8 mps 646 mmHg 91%
10:00 +1°C° 0 mm 8 mps 646 mmHg 90%
11:00 +1°C° 0 mm 8 mps 646 mmHg 89%
12:00 +2°C° 0 mm 9 mps 646 mmHg 88%
13:00 +2°C° 0 mm 9 mps 646 mmHg 88%
14:00 +2°C° 0 mm 9 mps 646 mmHg 88%
15:00 +2°C° 0 mm 10 mps 645 mmHg 88%
16:00 +1°C° 0.2 mm 10 mps 645 mmHg 89%
17:00 +1°C° 0.2 mm 10 mps 645 mmHg 90%
18:00 +1°C° 0.2 mm 10 mps 645 mmHg 91%
19:00 +1°C° 0.4 mm 11 mps 645 mmHg 90%
20:00 +2°C° 0.4 mm 11 mps 645 mmHg 90%
21:00 +2°C° 0.4 mm 12 mps 645 mmHg 89%
22:00 +2°C° 0.1 mm 12 mps 645 mmHg 88%
23:00 0°C° 0.1 mm 13 mps 644 mmHg 86%
Show more